When you browse on this site, cookies collect data to enhance your experience and personalize the content and advertising you see.
Visit our Privacy Policy to learn more. By continuing to use the site, you agree to this use of cookies and data.
  • In Austria
  • List of Countries
  • For 7 days
  • Water Temperature
  • Satellite Maps
  • Weather Map
  • News
  • Weather Widgets
  • user-avatar
    Login

    Hourly Weather Quito

    Today, 24 March, Sunday

    Time Temperature Precipitation Wind Pressure Humidity
    00:00 +19°C° 0 mm 1 mps 622 mmHg 83%
    01:00 +17°C° 0 mm 0 mps 622 mmHg 83%
    02:00 +16°C° 0 mm 0 mps 622 mmHg 84%
    03:00 +16°C° 0 mm 0 mps 621 mmHg 85%
    04:00 +16°C° 0 mm 0 mps 621 mmHg 87%
    05:00 +16°C° 0 mm 0 mps 622 mmHg 86%
    06:00 +17°C° 0 mm 0 mps 622 mmHg 85%
    07:00 +18°C° 0 mm 0 mps 623 mmHg 81%
    08:00 +22°C° 0 mm 1 mps 623 mmHg 71%
    09:00 +24°C° 0 mm 2 mps 624 mmHg 62%
    10:00 +26°C° 0 mm 2 mps 625 mmHg 53%
    11:00 +27°C° 0 mm 3 mps 624 mmHg 51%
    12:00 +27°C° 0 mm 3 mps 624 mmHg 49%
    13:00 +28°C° 0 mm 3 mps 623 mmHg 47%
    14:00 +28°C° 0 mm 3 mps 623 mmHg 47%
    15:00 +28°C° 0 mm 2 mps 623 mmHg 48%
    16:00 +28°C° 0 mm 2 mps 622 mmHg 49%
    17:00 +26°C° 0 mm 1 mps 622 mmHg 53%
    18:00 +24°C° 0 mm 1 mps 622 mmHg 58%
    19:00 +22°C° 0 mm 1 mps 621 mmHg 63%
    20:00 +20°C° 0.1 mm 0 mps 622 mmHg 64%
    21:00 +20°C° 0.1 mm 0 mps 623 mmHg 65%
    22:00 +20°C° 0.1 mm 0 mps 623 mmHg 66%
    23:00 +19°C° 0.2 mm 0 mps 623 mmHg 71%

    Tomorrow, 25 March, Monday

    Time Temperature Precipitation Wind Pressure Humidity
    00:00 +18°C° 0.2 mm 0 mps 623 mmHg 75%
    01:00 +18°C° 0.2 mm 0 mps 622 mmHg 80%
    02:00 +17°C° 0 mm 0 mps 622 mmHg 81%
    03:00 +16°C° 0 mm 0 mps 621 mmHg 82%
    04:00 +15°C° 0 mm 0 mps 621 mmHg 84%
    05:00 +16°C° 0 mm 0 mps 621 mmHg 83%
    06:00 +17°C° 0 mm 0 mps 622 mmHg 83%
    07:00 +17°C° 0 mm 0 mps 622 mmHg 82%
    08:00 +21°C° 0 mm 1 mps 623 mmHg 73%
    09:00 +24°C° 0 mm 2 mps 624 mmHg 63%
    10:00 +26°C° 0 mm 2 mps 625 mmHg 53%
    11:00 +27°C° 0 mm 3 mps 624 mmHg 51%
    12:00 +27°C° 0 mm 3 mps 624 mmHg 49%
    13:00 +28°C° 0 mm 4 mps 623 mmHg 47%
    14:00 +27°C° 0 mm 3 mps 623 mmHg 51%
    15:00 +27°C° 0 mm 3 mps 622 mmHg 55%
    16:00 +26°C° 0 mm 2 mps 621 mmHg 59%
    17:00 +24°C° 0 mm 2 mps 621 mmHg 65%
    18:00 +22°C° 0 mm 1 mps 621 mmHg 71%
    19:00 +20°C° 0 mm 1 mps 621 mmHg 77%
    20:00 +20°C° 0 mm 1 mps 621 mmHg 77%
    21:00 +19°C° 0 mm 1 mps 622 mmHg 78%
    22:00 +19°C° 0 mm 1 mps 622 mmHg 78%
    23:00 +17°C° 0 mm 0 mps 622 mmHg 77%

    Day after tomorrow, 26 March, Tuesday

    Time Temperature Precipitation Wind Pressure Humidity
    00:00 +17°C° 0 mm 0 mps 622 mmHg 77%
    01:00 +17°C° 0 mm 0 mps 622 mmHg 76%
    02:00 +17°C° 0 mm 0 mps 621 mmHg 78%
    03:00 +16°C° 0 mm 0 mps 621 mmHg 79%
    04:00 +16°C° 0 mm 0 mps 621 mmHg 81%
    05:00 +16°C° 0 mm 0 mps 621 mmHg 81%
    06:00 +18°C° 0 mm 1 mps 622 mmHg 81%
    07:00 +19°C° 0 mm 1 mps 622 mmHg 82%
    08:00 +21°C° 0 mm 1 mps 623 mmHg 75%
    09:00 +23°C° 0 mm 1 mps 624 mmHg 69%
    10:00 +25°C° 0 mm 1 mps 625 mmHg 63%
    11:00 +26°C° 0 mm 1 mps 625 mmHg 58%
    12:00 +26°C° 0 mm 1 mps 624 mmHg 54%
    13:00 +27°C° 0 mm 2 mps 624 mmHg 49%
    14:00 +26°C° 0.1 mm 1 mps 623 mmHg 56%
    15:00 +25°C° 0.1 mm 1 mps 623 mmHg 63%
    16:00 +24°C° 0.1 mm 1 mps 622 mmHg 70%
    17:00 +23°C° 0.2 mm 1 mps 622 mmHg 76%
    18:00 +20°C° 0.2 mm 2 mps 622 mmHg 83%
    19:00 +18°C° 0.2 mm 2 mps 622 mmHg 89%
    20:00 +18°C° 0.2 mm 2 mps 622 mmHg 89%
    21:00 +19°C° 0.2 mm 1 mps 623 mmHg 90%
    22:00 +18°C° 0.2 mm 1 mps 623 mmHg 90%
    23:00 +18°C° 0.3 mm 1 mps 623 mmHg 90%

    27 March, Wednesday

    Time Temperature Precipitation Wind Pressure Humidity
    00:00 +18°C° 0.3 mm 1 mps 623 mmHg 90%
    01:00 +16°C° 0.3 mm 0 mps 622 mmHg 89%
    02:00 +15°C° 0 mm 0 mps 622 mmHg 90%
    03:00 +15°C° 0 mm 0 mps 622 mmHg 90%
    04:00 +16°C° 0 mm 1 mps 622 mmHg 90%
    05:00 +16°C° 0 mm 0 mps 622 mmHg 88%
    06:00 +16°C° 0 mm 0 mps 623 mmHg 87%
    07:00 +17°C° 0 mm 0 mps 624 mmHg 85%
    08:00 +19°C° 0.4 mm 0 mps 625 mmHg 81%
    09:00 +22°C° 0.4 mm 1 mps 625 mmHg 77%
    10:00 +24°C° 0.4 mm 1 mps 626 mmHg 73%
    11:00 +24°C° 1.1 mm 2 mps 625 mmHg 70%
    12:00 +25°C° 1.1 mm 2 mps 625 mmHg 67%
    13:00 +25°C° 1.1 mm 2 mps 624 mmHg 65%
    14:00 +25°C° 1.6 mm 2 mps 624 mmHg 71%
    15:00 +24°C° 1.6 mm 1 mps 623 mmHg 76%
    16:00 +23°C° 1.6 mm 1 mps 623 mmHg 82%
    17:00 +22°C° 2.8 mm 1 mps 623 mmHg 85%
    18:00 +21°C° 2.8 mm 1 mps 623 mmHg 87%
    19:00 +20°C° 2.8 mm 1 mps 624 mmHg 89%
    20:00 +19°C° 2.6 mm 1 mps 624 mmHg 91%
    21:00 +19°C° 2.6 mm 1 mps 624 mmHg 92%
    22:00 +17°C° 2.6 mm 0 mps 625 mmHg 94%
    23:00 +17°C° 1 mm 0 mps 624 mmHg 94%

    28 March, Thursday

    Time Temperature Precipitation Wind Pressure Humidity
    00:00 +17°C° 1 mm 0 mps 624 mmHg 94%
    01:00 +18°C° 1 mm 1 mps 624 mmHg 94%
    02:00 +18°C° 0.6 mm 1 mps 624 mmHg 95%
    03:00 +18°C° 0.6 mm 1 mps 623 mmHg 96%
    04:00 +18°C° 0.6 mm 1 mps 623 mmHg 96%
    05:00 +18°C° 0.1 mm 1 mps 623 mmHg 95%
    06:00 +18°C° 0.1 mm 1 mps 624 mmHg 95%
    07:00 +16°C° 0.1 mm 0 mps 624 mmHg 94%
    08:00 +20°C° 0.1 mm 1 mps 625 mmHg 90%
    09:00 +20°C° 0.1 mm 2 mps 625 mmHg 85%
    10:00 +21°C° 0.1 mm 2 mps 625 mmHg 81%
    11:00 +23°C° 0.2 mm 2 mps 625 mmHg 77%
    12:00 +24°C° 0.2 mm 3 mps 624 mmHg 73%
    13:00 +25°C° 0.2 mm 3 mps 624 mmHg 68%
    14:00 +25°C° 0.5 mm 3 mps 623 mmHg 70%
    15:00 +24°C° 0.5 mm 3 mps 623 mmHg 73%
    16:00 +24°C° 0.5 mm 3 mps 623 mmHg 75%
    17:00 +21°C° 0.6 mm 2 mps 623 mmHg 80%
    18:00 +21°C° 0.6 mm 1 mps 623 mmHg 84%
    19:00 +19°C° 0.6 mm 1 mps 623 mmHg 89%
    20:00 +19°C° 0 mm 1 mps 623 mmHg 89%
    21:00 +17°C° 0 mm 0 mps 623 mmHg 89%
    22:00 +16°C° 0 mm 0 mps 624 mmHg 89%
    23:00 +16°C° 1.1 mm 0 mps 623 mmHg 91%

    29 March, Friday

    Time Temperature Precipitation Wind Pressure Humidity
    00:00 +16°C° 1.1 mm 0 mps 623 mmHg 93%
    01:00 +15°C° 1.1 mm 0 mps 623 mmHg 94%
    02:00 +15°C° 0.3 mm 0 mps 622 mmHg 94%
    03:00 +15°C° 0.3 mm 0 mps 622 mmHg 94%
    04:00 +15°C° 0.3 mm 0 mps 622 mmHg 94%
    05:00 +16°C° 0 mm 0 mps 622 mmHg 92%
    06:00 +16°C° 0 mm 0 mps 623 mmHg 91%
    07:00 +17°C° 0 mm 0 mps 624 mmHg 89%
    08:00 +21°C° 0 mm 1 mps 624 mmHg 79%
    09:00 +23°C° 0 mm 2 mps 625 mmHg 69%
    10:00 +25°C° 0 mm 3 mps 626 mmHg 59%
    11:00 +26°C° 0 mm 4 mps 625 mmHg 57%
    12:00 +26°C° 0 mm 4 mps 624 mmHg 56%
    13:00 +27°C° 0 mm 4 mps 624 mmHg 54%
    14:00 +27°C° 0 mm 4 mps 624 mmHg 55%
    15:00 +27°C° 0 mm 3 mps 623 mmHg 55%
    16:00 +27°C° 0 mm 2 mps 623 mmHg 56%
    17:00 +25°C° 0.1 mm 2 mps 623 mmHg 63%
    18:00 +23°C° 0.1 mm 1 mps 623 mmHg 70%
    19:00 +19°C° 0.1 mm 0 mps 623 mmHg 76%
    20:00 +20°C° 0 mm 1 mps 623 mmHg 77%
    21:00 +20°C° 0 mm 1 mps 623 mmHg 78%
    22:00 +19°C° 0 mm 1 mps 623 mmHg 79%
    23:00 +19°C° 0 mm 1 mps 622 mmHg 81%
    Show more